Location: GMARS
(34.2910°N, 116.3838°W)
Time: 06:55:57
(UTC-07:00)

Daily predictions for brighter satellites

Satellite Brightness Start Highest point End
(mag) Time Altitude Azimuth Time Altitude Azimuth Time Altitude Azimuth
DELTA 2 R/B (1) 3.7 20:28:21 10° WNW 20:33:55 76° NNE 20:39:28 10° ESE
ATLAS CENTAUR R/B 3.9 20:34:44 10° WNW 20:37:42 18° WSW 20:40:30 10° SSW
Meteor 1-21 Rocket 4.3 20:32:48 10° S 20:38:19 84° W 20:43:52 10° N
H-2A R/B 2.0 20:36:10 10° SW 20:39:11 19° S 20:40:36 11° SE
Cosmos 1441 Rocket 3.7 20:35:53 10° SSW 20:39:36 61° W 20:43:18 10° N
Cosmos 405 3.7 20:37:06 10° N 20:40:29 37° E 20:43:51 10° SSE
Cosmos 2219 3.3 20:35:50 10° S 20:41:26 56° ESE 20:47:03 10° NNE
USA 186 1.8 20:40:34 10° S 20:42:43 48° W 20:44:59 10° NNW
Cosmos 1680 Rocket 4.0 20:39:45 10° N 20:44:45 44° ENE 20:49:39 11° SE
FENGYUN 3A 4.1 20:43:29 10° S 20:48:50 65° WSW 20:54:14 10° NNW
Meteor 2-2 Rocket 4.4 20:43:30 10° N 20:49:32 75° E 20:55:33 10° SSE
Cosmos 923 Rocket 4.0 20:45:06 10° N 20:50:17 67° ENE 20:55:26 10° SSE
Cosmos 2322 Rocket 3.3 20:46:14 10° NW 20:51:28 41° WSW 20:56:41 10° S
Cosmos 1898 Rocket 4.2 20:48:31 10° SSE 20:53:01 31° E 20:57:32 10° NE
Cosmos 2322 3.8 20:49:03 10° NNW 20:54:44 65° ENE 21:00:00 12° SSE
Cosmos 2266 Rocket 4.0 20:49:33 10° S 20:55:50 79° E 21:02:03 10° N
Cosmos 773 Rocket 4.1 20:50:44 10° NNW 20:55:57 83° WSW 21:01:12 10° SSE
OTV 4 0.5 20:55:21 10° SW 20:58:14 51° SSE 21:01:08 10° E
Cosmos 1437 2.7 20:55:01 10° S 20:58:15 73° E 21:01:32 10° NNE
Cosmos 2360 Rocket 2.2 20:53:28 10° NNW 20:59:08 74° ENE 21:04:20 12° SSE
H-2A R/B 2.4 20:56:25 11° SSE 21:00:36 55° ENE 21:05:02 10° N
YAOGAN 6 4.5 21:02:03 13° E 21:03:31 16° ENE 21:05:48 10° NNE
Cosmos 1674 3.1 21:00:13 10° SSW 21:04:00 65° W 21:07:51 10° N
SL-16 R/B 3.7 20:59:28 10° NW 21:04:32 34° WSW 21:09:34 10° SSW
Cosmos 1666 Rocket 4.4 21:03:02 15° SE 21:05:58 30° E 21:09:51 10° NNE
NOSS 3-1 (A) 3.3 21:00:27 10° SSW 21:06:08 65° ESE 21:12:21 10° NE
Cosmos 2150 Rocket 4.4 21:01:14 10° S 21:06:22 45° ESE 21:11:33 10° NNE
Cosmos 1908 3.4 21:04:18 10° N 21:08:12 76° W 21:12:06 10° S
Cosmos 2315 Rocket 4.1 21:07:26 10° N 21:13:31 56° E 21:18:27 16° SSE
ERBS 2.5 21:14:53 10° SSW 21:18:16 49° SE 21:21:40 10° NE
CZ-4 SHROUD 3.9 21:18:06 27° ESE 21:19:10 36° ENE 21:22:04 10° N
Tiangong 1 3.1 21:16:37 10° W 21:19:22 28° NNW 21:22:07 10° NE
ALOS 4.4 21:18:19 10° SSW 21:22:03 24° W 21:25:48 10° NW
Cosmos 1300 3.2 21:19:41 10° N 21:23:20 41° E 21:24:50 28° SE
Cosmos 2227 Rocket 3.0 21:21:20 19° SSE 21:24:18 31° ESE 21:29:12 10° NE
ERS-1 Rocket 3.5 21:19:55 10° S 21:24:50 57° W 21:29:47 10° NNW
OAO 2 Rocket 3.4 21:22:05 10° WSW 21:27:24 84° SSE 21:32:37 11° E
ATLAS 2AS CENTAUR R/B 3.4 21:21:42 10° S 21:28:16 38° ESE 21:35:22 10° NE
Envisat 3.0 21:25:39 17° SSE 21:29:39 88° W 21:34:45 10° NNW
Cosmos 2151 4.1 21:30:11 10° SSW 21:34:09 42° W 21:38:09 10° N
MetOp-A 4.2 21:32:42 24° SSE 21:35:55 65° ENE 21:41:13 10° N
Cosmos 2058 3.2 21:33:57 10° SSW 21:37:58 67° W 21:42:04 10° N
Meteor 1-11 4.2 21:32:46 10° S 21:38:33 86° E 21:44:17 10° N
Hubble Space Telescope 1.8 21:35:52 10° SW 21:39:09 28° S 21:39:09 28° S
Cosmos 1745 Rocket 4.4 21:36:47 25° SE 21:39:55 42° E 21:45:40 10° NNE
Delta 2 Rocket 2.9 21:37:39 10° W 21:41:21 79° N 21:42:30 39° E
Sakura Rocket 4.0 21:39:23 10° SW 21:42:17 25° S 21:42:17 25° S
SL-16 R/B 4.4 21:42:02 10° NE 21:43:43 11° NE 21:45:25 10° ENE
Cosmos 1455 4.1 21:43:02 10° NE 21:45:10 16° ENE 21:45:10 16° ENE
ARGOS 3.6 21:45:02 30° SE 21:47:15 46° ENE 21:52:22 10° N
Cosmos 2333 Rocket 3.2 21:42:14 10° N 21:47:21 32° ENE 21:49:33 25° E
CZ-4 R/B 4.0 21:42:54 10° NNE 21:47:38 50° E 21:49:17 35° SSE
Cosmos 1937 Rocket 3.4 21:43:30 12° S 21:48:22 79° ESE 21:53:35 10° NNE
PSLV R/B 3.5 21:49:43 47° SSW 21:50:20 60° W 21:53:22 10° NNW
Cosmos 2297 Rocket 2.8 21:49:41 32° SE 21:50:54 36° ESE 21:56:00 10° NE
Cosmos 1726 2.0 21:48:53 10° N 21:52:41 80° E 21:53:31 52° SSE
Cosmos 990 Rocket 3.9 21:53:14 29° S 21:55:47 63° ESE 22:00:52 10° NNE
Sich 1 3.2 21:54:15 23° SSW 21:56:58 72° W 22:01:22 10° N
Cosmos 2219 Rocket 2.5 21:53:16 10° N 21:58:44 53° ENE 22:00:38 37° ESE
COSMOS 2428 2.8 21:53:39 10° NNW 21:59:18 72° WSW 22:02:01 32° S
Cosmos 1633 Rocket 3.4 22:01:05 24° SSW 22:03:34 64° W 22:07:55 10° N
Meteor 1-4 Rocket 2.4 22:01:46 10° N 22:05:28 80° E 22:05:37 77° ESE
Cosmos 2242 Rocket 3.5 22:03:57 10° N 22:08:28 85° E 22:09:28 54° SSE
CZ-4B R/B 3.9 22:06:16 10° N 22:11:28 64° WNW 22:15:16 18° SSW
SPOT 5 3.9 22:09:53 22° SSW 22:12:15 39° W 22:16:43 10° NNW
Meteor 2-10 4.2 22:06:37 10° N 22:12:21 70° E 22:14:03 45° SSE
USA 245 4.5 22:14:25 24° NNW 22:14:25 24° NNW 22:15:30 10° NNW
DELTA 2 R/B (1) 4.3 22:15:07 10° W 22:20:09 36° SW 22:20:46 35° SSW
Cosmos 1869 4.3 22:17:23 10° N 22:20:30 35° ENE 22:20:30 35° ENE
Cosmos 1980 3.8 22:15:59 10° NNW 22:21:34 59° ENE 22:22:45 48° ESE
Cosmos 292 Rocket 3.8 22:19:34 10° NNW 22:24:18 70° WSW 22:25:06 57° SSW
Cosmos 1271 Rocket 3.1 22:23:33 10° NNW 22:27:20 55° W 22:27:29 54° WSW
H-2A R/B 2.3 22:27:08 51° ESE 22:27:57 56° ENE 22:33:16 10° N
CZ-4C R/B 3.8 22:30:31 48° N 22:30:31 48° N 22:33:07 10° N
Iridium 2 4.1 22:29:37 55° W 22:29:45 56° W 22:33:32 10° N
DELTA 2 DEB (DPAF) 4.0 22:29:50 78° ESE 22:29:59 79° ENE 22:34:29 10° N
Cosmos 1626 2.6 22:31:10 59° N 22:31:10 59° N 22:34:16 10° N
Landsat 7 3.6 22:32:29 74° SE 22:32:49 79° ENE 22:37:35 10° N
Cosmos 2237 Rocket 2.2 22:27:52 10° NNW 22:33:34 69° ENE 22:34:29 58° ESE
OTV 4 3.0 22:31:46 10° W 22:32:49 19° WNW 22:32:49 19° WNW
Cosmos 2082 4.1 22:31:20 19° SW 22:35:28 63° WNW 22:41:09 10° NNE
YAOGAN 6 4.5 22:36:33 23° WSW 22:36:53 23° W 22:39:49 10° NW
SPOT 1/Viking Rocket 4.4 22:39:08 34° SW 22:40:37 42° W 22:45:30 10° NNW
Cosmos 44 Rocket 4.4 22:42:24 34° ENE 22:42:24 34° ENE 22:45:45 10° NE
Cosmos 1125 Rocket 3.4 22:40:43 69° ESE 22:40:47 69° ESE 22:46:04 10° NNE
Terra 1.7 22:48:51 78° NE 22:48:51 78° NE 22:53:26 10° N
SL-08 RB Rocket 4.4 22:49:12 43° WSW 22:49:27 43° W 22:53:44 10° NNW
NOSS 2-3 (D) 4.4 22:52:55 47° ENE 22:52:55 47° ENE 22:56:54 10° NE
Tiangong 1 4.0 22:54:29 10° NW 22:56:26 16° N 22:56:26 16° N
Spot 4 3.9 23:00:39 73° NNE 23:00:39 73° NNE 23:05:06 10° N
Cosmos 2227 Rocket 3.8 23:03:18 10° WSW 23:08:14 31° WNW 23:13:13 10° N
BREEZE-M DEB (TANK) 4.0 23:12:41 45° NNE 23:12:41 45° NNE 23:18:07 10° NE
OAO 2 Rocket 3.6 23:07:01 10° W 23:11:34 65° WNW 23:11:34 65° WNW
Lacrosse 4 Rocket 2.5 23:13:11 10° NNW 23:16:24 44° N 23:16:24 44° N
ATLAS 2AS CENTAUR R/B 4.0 23:12:06 10° WSW 23:19:07 44° NW 23:26:43 10° NNE
Cosmos 1455 4.4 23:18:03 10° NW 23:20:13 22° WNW 23:20:13 22° WNW
SL-16 R/B 2.2 23:22:55 10° NNW 23:28:10 76° N 23:28:10 76° N
Cosmos 2074 Rocket 4.1 23:29:41 62° ENE 23:29:41 62° ENE 23:35:31 10° NNE
Cosmos 2333 Rocket 3.5 23:26:33 10° NW 23:31:29 30° WSW 23:31:34 30° WSW
ATLAS 3B R/B 2.4 23:26:44 10° NNW 23:33:39 90° ENE 23:33:49 86° SSE
Cosmos 2297 Rocket 4.0 23:31:24 15° WSW 23:34:56 27° WNW 23:39:40 10° N
Cosmos 2327 Rocket 4.5 23:38:41 74° ENE 23:38:41 74° ENE 23:44:47 10° N
Cosmos 2219 Rocket 4.2 23:38:43 10° WNW 23:42:10 17° W 23:42:21 17° WSW
COSMOS 2455 3.1 23:38:50 10° NNW 23:44:11 61° W 23:44:11 61° W
USA 238 DEB 4.1 23:41:50 10° NNW 23:48:44 55° NE 23:49:31 52° E
USA 238 4.1 23:41:57 10° NNW 23:48:49 54° NE 23:49:38 51° E
